Tracking 28790 objects as of 19-Apr-2024
HD Live streaming from Space Station
objects crossing your sky now

DELTA 1 DEB

Track DELTA 1 DEB now!
10-day predictions


NORAD ID: 21326
Int'l Code: 1975-052AU
Perigee: 1,088.3 km
Apogee: 1,133.7 km
Inclination: 99.9 °
Period: 107.3 minutes
Semi major axis: 7481 km
RCS: 0.0568 m2 (small)
Launch date: June 12, 1975
Source: United States (US)
Launch site: AIR FORCE WESTERN TEST RANGE (AFWTR)

Note: This is SATELLITE DEBRIS
Your satellite tracking list
Your tracking list is empty




NASA's NSSDC Master Catalog

Two Line Element Set (TLE):
1 21326U 75052AU  24109.52924861  .00000397  00000-0  79007-3 0  9991
2 21326  99.9083   5.7062 0030324 172.6368 310.4701 13.41456727610080
Source of the keplerian elements: AFSPC